$Date,$Time,DM0201B,DM0203B,DM0205B,DM0207B,DM0209B
10/09/98,00:00:01,565,171,-20,130,942
10/09/98,00:05:01,478,171,-19,149,942
10/09/98,00:10:01,621,171,-19,147,942
10/09/98,00:15:01,529,171,-19,132,942
10/09/98,00:20:01,566,171,-19,121,942
10/09/98,00:25:01,500,173,-19,116,942
10/09/98,00:30:01,620,161,-20,111,942
10/09/98,00:35:01,597,172,-20,108,942
10/09/98,00:40:01,566,171,-20,106,940
10/09/98,00:45:01,566,171,-19,109,940
10/09/98,00:50:01,580,171,-19,113,940
10/09/98,00:55:01,564,171,-19,109,940
10/09/98,01:00:01,553,171,-19,107,940
10/09/98,01:05:01,552,171,-19,105,940
10/09/98,01:10:01,586,161,-19,107,940
10/09/98,01:15:01,590,171,-19,105,940
10/09/98,01:20:01,609,171,-19,107,940
10/09/98,01:25:01,620,171,-19,115,940
10/09/98,01:30:01,593,171,-19,111,940
10/09/98,01:35:01,538,171,-19,107,940
10/09/98,01:40:01,579,171,-19,110,940
10/09/98,01:45:01,529,171,-19,103,940
10/09/98,01:50:01,513,171,-19,105,940
10/09/98,01:55:01,465,171,-19,107,940
10/09/98,02:00:01,538,171,-19,105,940
10/09/98,02:05:01,538,171,-18,115,940
10/09/98,02:10:01,520,171,-18,117,940
10/09/98,02:15:01,535,171,-18,115,940
10/09/98,02:20:01,580,171,-18,109,940
10/09/98,02:25:01,613,171,-18,107,940
10/09/98,02:30:01,612,171,-19,107,940
10/09/98,02:35:01,571,171,-19,111,940
10/09/98,02:40:01,517,181,-18,115,940
10/09/98,02:45:01,559,178,-18,117,940
10/09/98,02:50:01,476,178,-18,117,940
10/09/98,02:55:01,468,168,-18,115,940
10/09/98,03:00:01,564,168,-18,115,940
10/09/98,03:05:01,419,168,-18,111,940
10/09/98,03:10:01,514,168,-18,107,940
10/09/98,03:15:01,528,168,-18,91,940
10/09/98,03:20:01,517,168,-18,85,940
10/09/98,03:25:01,574,168,-18,85,940
10/09/98,03:30:01,537,180,-18,87,940
10/09/98,03:35:01,500,170,-18,85,940
10/09/98,03:40:01,467,180,-18,83,940
10/09/98,03:45:01,457,180,-18,81,940
10/09/98,03:50:01,427,189,-18,77,940
10/09/98,03:55:01,441,189,-18,75,942
10/09/98,04:00:01,368,187,-18,73,942
10/09/98,04:05:01,354,185,-18,73,942
10/09/98,04:10:01,344,185,-18,73,942
10/09/98,04:15:01,386,185,-18,67,942
10/09/98,04:20:01,418,181,-18,65,942
10/09/98,04:25:01,469,181,-18,61,942
10/09/98,04:30:01,499,181,-18,61,940
10/09/98,04:35:01,539,181,-19,61,940
10/09/98,04:40:01,536,181,-19,63,940
10/09/98,04:45:01,565,191,-19,65,938
10/09/98,04:50:01,659,191,-19,67,938
10/09/98,04:55:01,613,191,-19,67,938
10/09/98,05:00:01,575,191,-19,67,938
10/09/98,05:05:01,589,191,-19,65,940
10/09/98,05:10:01,604,181,-19,67,940
10/09/98,05:15:01,646,181,-19,61,940
10/09/98,05:20:01,588,181,-19,59,940
10/09/98,05:25:01,653,181,-19,57,938
10/09/98,05:30:01,629,181,-19,55,938
10/09/98,05:35:01,634,181,-19,53,938
10/09/98,05:40:01,650,181,-19,53,938
10/09/98,05:45:01,553,181,-19,53,940
10/09/98,05:50:01,582,181,-19,53,940
10/09/98,05:55:01,652,181,-19,51,940
10/09/98,06:00:01,516,181,-19,51,940
10/09/98,06:05:01,600,181,-20,49,940
10/09/98,06:10:01,508,181,-20,47,940
10/09/98,06:15:01,459,181,-20,47,942
10/09/98,06:20:01,422,181,-20,47,942
10/09/98,06:25:01,402,181,-20,47,942
10/09/98,06:30:01,486,181,-20,45,942
10/09/98,06:35:01,508,171,-20,43,940
10/09/98,06:40:01,516,171,-20,41,940
10/09/98,06:45:01,531,171,-20,39,940
10/09/98,06:50:01,481,171,-20,37,940
10/09/98,06:55:01,470,171,-20,39,940
10/09/98,07:00:01,456,171,-20,39,942
10/09/98,07:05:01,463,170,-20,33,942
10/09/98,07:10:01,498,180,-20,31,942
10/09/98,07:15:01,462,180,-20,27,940
10/09/98,07:20:01,495,168,-20,27,940
10/09/98,07:25:01,459,179,-20,21,940
10/09/98,07:30:01,464,169,-20,19,940
10/09/98,07:35:01,482,169,-20,17,940
10/09/98,07:40:01,441,169,-20,15,940
10/09/98,07:45:01,547,179,-20,15,940
10/09/98,07:50:01,593,167,-20,13,940
10/09/98,07:55:01,623,167,-20,15,940
10/09/98,08:00:01,631,167,-20,15,940
10/09/98,08:05:01,609,167,-20,13,938
10/09/98,08:10:01,617,167,-20,13,940
10/09/98,08:15:01,540,167,-20,13,940
10/09/98,08:20:01,577,167,-20,22,940
10/09/98,08:25:01,507,179,-20,18,940
10/09/98,08:30:01,607,179,-20,12,940
10/09/98,08:35:01,561,177,-20,12,940
10/09/98,08:40:01,557,177,-20,6,938
10/09/98,08:45:01,572,177,-21,4,938
10/09/98,08:50:01,642,177,-21,4,938
10/09/98,08:55:01,626,177,-21,4,938
10/09/98,09:00:01,645,177,-21,2,938
10/09/98,09:05:01,658,177,-20,2,938
10/09/98,09:10:01,631,177,-20,2,938
10/09/98,09:15:01,546,177,-20,0,940
10/09/98,09:20:01,514,177,-20,0,940
10/09/98,09:25:01,500,177,-20,0,940
10/09/98,09:30:01,583,177,-20,0,940
10/09/98,09:35:01,500,177,-20,0,940
10/09/98,09:40:01,538,177,-20,0,940
10/09/98,09:45:01,544,177,-20,0,940
10/09/98,09:50:01,488,177,-20,0,940
10/09/98,09:55:01,522,177,-20,0,940
10/09/98,10:00:01,509,177,-20,0,940
10/09/98,10:05:01,511,177,-20,0,940
10/09/98,10:10:01,519,177,-20,0,940
10/09/98,10:15:01,481,177,-20,0,940
10/09/98,10:20:01,412,166,-20,0,940
10/09/98,10:25:01,401,166,-20,0,940
10/09/98,10:30:01,318,165,-20,0,940
10/09/98,10:35:01,274,165,-20,0,940
10/09/98,10:40:01,306,165,-20,0,940
10/09/98,10:45:01,246,162,-20,0,940
10/09/98,10:50:01,333,155,-20,0,940
10/09/98,10:55:01,266,146,-20,0,940
10/09/98,11:00:01,218,146,-20,0,940
10/09/98,11:05:01,211,152,-20,0,940
10/09/98,11:10:01,251,140,-20,0,940
10/09/98,11:15:01,247,140,-20,0,940
10/09/98,11:20:01,218,140,-20,0,940
10/09/98,11:25:01,254,149,-20,0,940
10/09/98,11:30:01,243,141,-20,0,940
10/09/98,11:35:01,299,153,-20,0,940
10/09/98,11:40:01,304,152,-20,0,940
10/09/98,11:45:01,312,161,-20,0,940
10/09/98,11:50:01,284,161,-20,0,940
10/09/98,11:55:01,298,156,-20,0,940
10/09/98,12:00:01,329,157,-20,0,940
10/09/98,12:05:01,387,168,-20,0,940
10/09/98,12:10:01,386,168,-20,0,940
10/09/98,12:15:01,391,168,-20,0,940
10/09/98,12:20:01,387,168,-20,0,940
10/09/98,12:25:01,410,168,-20,0,940
10/09/98,12:30:01,384,168,-20,0,938
10/09/98,12:35:01,414,168,-20,0,938
10/09/98,12:40:01,376,168,-20,0,938
10/09/98,12:45:01,402,168,-20,0,938
10/09/98,12:50:01,415,168,-20,0,938
10/09/98,12:55:01,409,168,-20,0,938
10/09/98,13:00:01,384,170,-20,0,938
10/09/98,13:05:01,356,180,-20,0,938
10/09/98,13:10:01,362,180,-20,0,938
10/09/98,13:15:01,355,180,-20,0,938
10/09/98,13:20:01,392,170,-20,0,938
10/09/98,13:25:01,358,170,-20,0,938
10/09/98,13:30:01,344,182,-20,0,940
10/09/98,13:35:01,362,184,-20,0,940
10/09/98,13:40:01,311,184,-20,0,940
10/09/98,13:45:01,345,184,-20,0,940
10/09/98,13:50:01,355,174,-20,0,940
10/09/98,13:55:01,351,186,-20,0,940
10/09/98,14:00:01,396,184,-20,0,940
10/09/98,14:05:01,373,184,-20,0,940
10/09/98,14:10:01,390,184,-20,0,940
10/09/98,14:15:01,396,184,-20,0,940
10/09/98,14:20:01,341,184,-20,0,940
10/09/98,14:25:01,365,184,-20,0,940
10/09/98,14:30:01,371,184,-20,0,940
10/09/98,14:35:01,318,200,-20,0,940
10/09/98,14:40:01,378,210,-20,0,940
10/09/98,14:45:01,311,210,-19,0,940
10/09/98,14:50:01,438,192,-19,0,940
10/09/98,14:55:01,436,188,-19,0,938
10/09/98,15:00:01,458,178,-19,0,938
10/09/98,15:05:01,471,178,-19,0,938
10/09/98,15:10:01,397,168,-19,0,938
10/09/98,15:15:01,410,172,-19,0,938
10/09/98,15:20:01,429,172,-19,0,938
10/09/98,15:25:01,386,172,-20,0,938
10/09/98,15:30:01,419,172,-20,0,938
10/09/98,15:35:01,392,183,-20,0,938
10/09/98,15:40:01,391,183,-20,0,938
10/09/98,15:45:01,378,183,-20,0,938
10/09/98,15:50:01,398,183,-20,0,938
10/09/98,15:55:01,369,173,-20,0,938
10/09/98,16:00:01,337,173,-20,0,938
10/09/98,16:05:01,317,173,-20,0,938
10/09/98,16:10:01,322,173,-20,0,938
10/09/98,16:15:01,305,183,-20,0,938
10/09/98,16:20:01,319,183,-20,0,938
10/09/98,16:25:01,281,183,-20,2,938
10/09/98,16:30:01,274,183,-20,2,938
10/09/98,16:35:01,261,183,-20,4,938
10/09/98,16:40:01,259,183,-20,6,938
10/09/98,16:45:01,236,183,-20,6,938
10/09/98,16:50:01,245,183,-20,8,938
10/09/98,16:55:01,220,197,-20,8,938
10/09/98,17:00:01,222,187,-20,8,938
10/09/98,17:05:01,220,187,-20,10,938
10/09/98,17:10:01,173,187,-20,10,938
10/09/98,17:15:01,186,197,-20,12,938
10/09/98,17:20:01,160,197,-19,12,938
10/09/98,17:25:01,173,197,-19,12,938
10/09/98,17:30:01,137,195,-19,14,938
10/09/98,17:35:01,134,201,-19,14,938
10/09/98,17:40:01,112,223,-19,16,938
10/09/98,17:45:01,76,278,-20,18,938
10/09/98,17:50:01,64,254,-20,20,938
10/09/98,17:55:01,98,260,-20,20,938
10/09/98,18:00:01,23,261,-20,20,938
10/09/98,18:05:01,107,252,-20,22,938
10/09/98,18:10:01,58,227,-20,24,938
10/09/98,18:15:01,127,202,-20,24,938
10/09/98,18:20:01,99,172,-19,24,938
10/09/98,18:25:01,136,178,-19,24,938
10/09/98,18:30:01,240,180,-19,24,938
10/09/98,18:35:01,254,173,-19,22,938
10/09/98,18:40:01,354,173,-19,22,938
10/09/98,18:45:01,506,173,-19,22,936
10/09/98,18:50:01,482,184,-18,22,936
10/09/98,18:55:01,472,192,-18,22,936
10/09/98,19:00:01,317,182,-18,22,936
10/09/98,19:05:01,296,194,-18,22,936
10/09/98,19:10:01,357,182,-18,24,936
10/09/98,19:15:01,313,189,-18,24,936
10/09/98,19:20:01,284,190,-18,24,938
10/09/98,19:25:01,109,260,-19,20,938
10/09/98,19:30:01,159,297,-19,20,938
10/09/98,19:35:01,117,259,-20,18,938
10/09/98,19:40:01,57,282,-20,20,938
10/09/98,19:45:01,80,270,-19,20,938
10/09/98,19:50:01,208,305,-20,20,938
10/09/98,19:55:01,141,256,-20,22,938
10/09/98,20:00:01,35,95,-19,22,938
10/09/98,20:05:01,91,196,-19,24,938
10/09/98,20:10:01,70,201,-19,26,938
10/09/98,20:15:01,223,190,-19,22,938
10/09/98,20:20:01,238,170,-18,29,938
10/09/98,20:25:01,355,170,-18,32,938
10/09/98,20:30:01,412,168,-18,37,938
10/09/98,20:35:01,422,172,-18,43,936
10/09/98,20:40:01,461,173,-18,50,936
10/09/98,20:45:01,592,186,-18,49,936
10/09/98,20:50:01,434,175,-18,55,936
10/09/98,20:55:01,464,175,-17,57,936
10/09/98,21:00:01,462,182,-17,61,936
10/09/98,21:05:01,280,203,-17,61,936
10/09/98,21:10:01,236,212,-18,65,936
10/09/98,21:15:01,323,211,-18,69,936
10/09/98,21:20:01,372,178,-17,65,936
10/09/98,21:25:01,385,191,-17,65,936
10/09/98,21:30:01,423,205,-17,65,936
10/09/98,21:35:01,135,243,-18,72,936
10/09/98,21:40:01,263,195,-18,76,936
10/09/98,21:45:01,274,214,-18,84,936
10/09/98,21:50:01,344,182,-17,86,936
10/09/98,21:55:01,391,177,-17,98,936
10/09/98,22:00:01,398,177,-17,98,936
10/09/98,22:05:01,489,177,-17,102,936
10/09/98,22:10:01,420,177,-17,96,936
10/09/98,22:15:01,427,187,-17,90,936
10/09/98,22:20:01,353,196,-17,92,936
10/09/98,22:25:01,384,191,-17,88,936
10/09/98,22:30:01,26,275,-17,90,936
10/09/98,22:35:01,101,303,-17,92,936
10/09/98,22:40:01,70,177,-17,88,936
10/09/98,22:45:01,35,328,-17,80,936
10/09/98,22:50:01,61,318,-18,82,936
10/09/98,22:55:01,95,318,-18,89,936
10/09/98,23:00:01,144,329,-18,80,936
10/09/98,23:05:01,105,29,-18,81,936
10/09/98,23:10:01,202,176,-18,70,936
10/09/98,23:15:01,387,178,-18,85,936
10/09/98,23:20:01,463,168,-18,96,936
10/09/98,23:25:01,477,168,-18,84,936
10/09/98,23:30:01,606,168,-18,90,934
10/09/98,23:35:01,662,166,-18,91,934
10/09/98,23:40:01,622,166,-18,95,934
10/09/98,23:45:01,618,155,-18,94,932
10/09/98,23:50:01,633,167,-18,100,932
10/09/98,23:55:01,734,167,-18,105,932
10/10/98,00:00:01,722,169,-18,112,932
